Roatan, Honduras

6:54 PM CST on September 25, 2016 (GMT -0600)
Roatan

Weather History for 78703 - August, 2013

Change the Weather History Date:

Saturday, August 24, 2013

  Actual Average Record
Temperature  
Mean Temperature 84 °F -  
Max Temperature 90 °F - - ()
Min Temperature 78 °F - - ()
Cooling Degree Days 19    
Growing Degree Days 34 (Base 50)    
Moisture  
Dew Point 75 °F    
Average Humidity 68    
Maximum Humidity 79    
Minimum Humidity 56    
Precipitation  
Precipitation 0.00 in - - ()
Sea Level Pressure  
Sea Level Pressure 29.86 in    
Wind  
Wind Speed 15 mph ()    
Max Wind Speed 28 mph    
Max Gust Speed -    
Visibility 8.0 miles    
Events      
T = Trace of Precipitation, MM = Missing Value Source: Averaged Metar Reports

Daily Weather History Graph

Daily Weather History Graph

Search for Another Location

Airport or City:

Trip Planner

Search our weather history database for the weather conditions in past years. The results will help you decide how hot, cold, wet, or windy it might be!

Date:

Astronomy

Aug. 24, 2013 Rise Set
Actual Time 5:31 AM CST 6:04 PM CST
Civil Twilight 5:09 AM CST 6:26 PM CST
Nautical Twilight 4:44 AM CST 6:52 PM CST
Astronomical Twilight 4:17 AM CST 7:18 PM CST
Moon 8:47 PM CST (8/24) 8:45 AM CST (8/24)
Length of Visible Light 13h 16m
Length of Day
12h 32m
Waning Gibbous, 84% of the Moon is Illuminated
Aug 24
Waning Gibbous
Aug 28
Last Quarter
Sep 5
New
Sep 12
First Quarter
Sep 19
Full

Hourly Weather History & Observations

Time (CST) Temp. Heat Index Dew Point Humidity Pressure Visibility Wind Dir Wind Speed Gust Speed Precip Events Conditions
6:00 AM 82 °F - 73 °F 68% 29.83 in 17 mi East 16.1 mph - -   Scattered Clouds
6:00 AM 82.4 °F 88.2 °F 73.4 °F 74% 29.83 in 6.2 mi East 16.1 mph - N/A   Mostly Cloudy
7:00 AM 82.4 °F 88.2 °F 73.4 °F 74% 29.86 in 6.2 mi East 13.8 mph - N/A   Mostly Cloudy
8:00 AM 84.2 °F 92.3 °F 75.2 °F 74% 29.89 in 6.2 mi SE 11.5 mph - N/A   Mostly Cloudy
9:00 AM 84 °F - 75 °F 69% 29.91 in 16 mi ESE 12.7 mph - -   Partly Cloudy
9:00 AM 84.2 °F 92.3 °F 75.2 °F 74% 29.92 in 6.2 mi ESE 12.7 mph - N/A   Mostly Cloudy
10:00 AM 86.0 °F 95.1 °F 75.2 °F 70% 29.89 in 6.2 mi East 12.7 mph - N/A   Mostly Cloudy
11:00 AM 87.8 °F 97.6 °F 75.2 °F 66% 29.89 in 6.2 mi East 16.1 mph - N/A   Mostly Cloudy
12:00 PM 87 °F - 75 °F 61% 29.90 in 16 mi East 16.1 mph - -   Scattered Clouds
12:00 PM 87.8 °F 97.6 °F 75.2 °F 66% 29.89 in 6.2 mi East 16.1 mph - N/A   Mostly Cloudy
1:00 PM 87.8 °F 97.6 °F 75.2 °F 66% 29.86 in 6.2 mi ESE 16.1 mph - N/A   Mostly Cloudy
2:00 PM 89.6 °F 99.8 °F 75.2 °F 62% 29.83 in 6.2 mi East 20.7 mph - N/A   Mostly Cloudy
3:00 PM 89 °F - 75 °F 56% 29.83 in 9 mi East 20.7 mph - -   Haze
3:00 PM 89.6 °F 99.8 °F 75.2 °F 62% 29.83 in 6.2 mi East 20.7 mph - N/A   Mostly Cloudy
4:00 PM 87.8 °F 97.6 °F 75.2 °F 66% 29.80 in 6.2 mi East 23.0 mph - N/A   Scattered Clouds
5:00 PM 86.0 °F 95.1 °F 75.2 °F 70% 29.83 in 6.2 mi East 26.5 mph - N/A   Scattered Clouds
6:00 PM 85 °F - 75 °F 64% 29.84 in 9 mi East 27.6 mph - -   Haze
6:00 PM 84.2 °F 92.3 °F 75.2 °F 74% 29.83 in 6.2 mi East 27.6 mph - N/A   Scattered Clouds
7:00 PM 84.2 °F 92.3 °F 75.2 °F 74% 29.86 in 6.2 mi East 23.0 mph - N/A   Scattered Clouds
8:00 PM 84.2 °F 94.1 °F 77.0 °F 79% 29.89 in 6.2 mi East 24.2 mph - N/A   Partly Cloudy